York, NE

2:25 AM CDT on March 26, 2017 (GMT -0500)
York Municipal

Weather History for KJYR - January, 2013

Change the Weather History Date:

Wednesday, January 2, 2013

  Actual Average Record
Temperature  
Mean Temperature 20 °F -  
Max Temperature 32 °F 30 °F 70 °F (1964)
Min Temperature 8 °F 12 °F -8 °F (1974)
Degree Days  
Heating Degree Days 45    
Moisture  
Dew Point 20 °F    
Average Humidity 84    
Maximum Humidity 93    
Minimum Humidity 79    
Precipitation  
Precipitation 0.00 in - - ()
Sea Level Pressure  
Sea Level Pressure 30.10 in    
Wind  
Wind Speed 10 mph (WNW)    
Max Wind Speed 17 mph    
Max Gust Speed -    
Visibility 10 miles    
Events Snow    
Averages and records for this station are not official NWS values.
T = Trace of Precipitation, MM = Missing Value Source: NWS Daily Summary

Daily Weather History Graph

Daily Weather History Graph

Search for Another Location

Airport or City:

Trip Planner

Search our weather history database for the weather conditions in past years. The results will help you decide how hot, cold, wet, or windy it might be!

Date:

Astronomy

Jan. 02, 2013 Rise Set
Actual Time 7:55 AM CST 5:14 PM CST
Civil Twilight 7:24 AM CST 5:45 PM CST
Nautical Twilight 6:49 AM CST 6:19 PM CST
Astronomical Twilight 6:16 AM CST 6:53 PM CST
Moon 10:50 PM CST (1/2) 10:35 AM CST (1/2)
Length of Visible Light 10h 20m
Length of Day
9h 19m
Waning Gibbous, 75% of the Moon is Illuminated
Jan 2
Waning Gibbous
Jan 4
Last Quarter
Jan 11
New
Jan 18
First Quarter
Jan 26
Full

Hourly Weather History & Observations

Time (CST) Temp. Windchill Dew Point Humidity Pressure Visibility Wind Dir Wind Speed Gust Speed Precip Events Conditions
12:15 AM 12.2 °F -1.8 °F 6.8 °F 79% 30.08 in 10.0 mi WSW 11.5 mph - N/A   Clear
12:35 AM 10.4 °F -3.3 °F 6.8 °F 85% 30.08 in 10.0 mi SW 10.4 mph - N/A   Clear
12:55 AM 10.4 °F -3.3 °F 6.8 °F 85% 30.08 in 10.0 mi SW 10.4 mph - N/A   Clear
1:15 AM 10.4 °F -3.3 °F 6.8 °F 85% 30.07 in 10.0 mi WSW 10.4 mph - N/A   Clear
1:35 AM 10.4 °F -3.3 °F 6.8 °F 85% 30.06 in 10.0 mi WSW 10.4 mph - N/A   Clear
1:55 AM 12.2 °F -1.0 °F 6.8 °F 79% 30.06 in 10.0 mi WSW 10.4 mph - N/A   Clear
2:15 AM 10.4 °F -2.4 °F 5.0 °F 79% 30.06 in 10.0 mi SW 9.2 mph - N/A   Scattered Clouds
2:35 AM 10.4 °F -1.5 °F 5.0 °F 79% 30.07 in 10.0 mi WSW 8.1 mph - N/A   Partly Cloudy
3:35 AM 8.6 °F -6.3 °F 5.0 °F 85% 30.04 in 10.0 mi WSW 11.5 mph - N/A   Clear
3:55 AM 8.6 °F -6.3 °F 5.0 °F 85% 30.04 in 10.0 mi WSW 11.5 mph - N/A   Clear
4:15 AM 8.6 °F -5.5 °F 3.2 °F 79% 30.03 in 10.0 mi WSW 10.4 mph - N/A   Clear
4:35 AM 10.4 °F -5.4 °F 5.0 °F 79% 30.03 in 10.0 mi WSW 13.8 mph - N/A   Clear
4:55 AM 8.6 °F -7.7 °F 5.0 °F 85% 30.03 in 10.0 mi West 13.8 mph - N/A   Clear
5:15 AM 8.6 °F -4.7 °F 3.2 °F 79% 30.03 in 10.0 mi West 9.2 mph - N/A   Clear
5:35 AM 8.6 °F -6.3 °F 3.2 °F 79% 30.04 in 10.0 mi West 11.5 mph - N/A   Clear
6:15 AM 10.4 °F -4.1 °F 6.8 °F 85% 30.04 in 10.0 mi West 11.5 mph - N/A   Overcast
6:35 AM 14.0 °F 0.5 °F 8.6 °F 79% 30.04 in 10.0 mi WNW 11.5 mph - N/A   Overcast
6:55 AM 15.8 °F 2.1 °F 10.4 °F 79% 30.04 in 10.0 mi WNW 12.7 mph - N/A   Overcast
7:15 AM 17.6 °F 4.3 °F 14.0 °F 86% 30.04 in 10.0 mi NW 12.7 mph - N/A Snow Light Snow
7:35 AM 19.4 °F 5.5 °F 15.8 °F 86% 30.05 in 10.0 mi NW 15.0 mph - N/A Snow Light Snow
7:55 AM 23.0 °F 9.2 °F 17.6 °F 80% 30.05 in 2.5 mi NW 17.3 mph - N/A Snow Light Snow
8:15 AM 23.0 °F 10.6 °F 19.4 °F 86% 30.05 in 8.0 mi NW 13.8 mph - N/A Snow Light Snow
8:35 AM 23.0 °F 11.7 °F 19.4 °F 86% 30.04 in 10.0 mi NW 11.5 mph - N/A   Overcast
8:55 AM 24.8 °F 14.0 °F 21.2 °F 86% 30.05 in 10.0 mi NW 11.5 mph - N/A Snow Light Snow
9:15 AM 24.8 °F 13.4 °F 23.0 °F 93% 30.07 in 10.0 mi WNW 12.7 mph - N/A   Overcast
9:35 AM 24.8 °F 12.9 °F 23.0 °F 93% 30.08 in 10.0 mi WNW 13.8 mph - N/A   Mostly Cloudy
9:55 AM 26.6 °F 16.2 °F 23.0 °F 86% 30.09 in 10.0 mi WNW 11.5 mph - N/A   Overcast
10:15 AM 26.6 °F 16.8 °F 24.8 °F 93% 30.09 in 10.0 mi West 10.4 mph - N/A   Mostly Cloudy
10:35 AM 26.6 °F 16.8 °F 24.8 °F 93% 30.10 in 10.0 mi WNW 10.4 mph - N/A   Scattered Clouds
10:55 AM 28.4 °F 18.0 °F 24.8 °F 86% 30.10 in 10.0 mi WNW 12.7 mph - N/A   Partly Cloudy
11:15 AM 28.4 °F 19.1 °F 24.8 °F 86% 30.10 in 10.0 mi WNW 10.4 mph - N/A   Clear
11:35 AM 28.4 °F 20.4 °F 26.6 °F 93% 30.09 in 10.0 mi West 8.1 mph - N/A   Clear
11:55 AM 28.4 °F 18.0 °F 26.6 °F 93% 30.08 in 10.0 mi West 12.7 mph - N/A   Clear
12:15 PM 30.2 °F 19.3 °F 26.6 °F 86% 30.08 in 10.0 mi WNW 15.0 mph - N/A   Clear
12:35 PM 32.0 °F 22.5 °F 26.6 °F 80% 30.07 in 10.0 mi WNW 12.7 mph - N/A   Scattered Clouds
12:55 PM 32.0 °F 22.1 °F 26.6 °F 80% 30.06 in 10.0 mi NW 13.8 mph - N/A   Overcast
1:15 PM 32.0 °F 22.5 °F 26.6 °F 80% 30.06 in 10.0 mi NW 12.7 mph - N/A   Overcast
1:35 PM 32.0 °F 22.5 °F 28.4 °F 87% 30.06 in 10.0 mi NW 12.7 mph - N/A   Overcast
1:55 PM 32.0 °F 22.5 °F 28.4 °F 87% 30.06 in 10.0 mi WNW 12.7 mph - N/A   Overcast
2:15 PM 32.0 °F 22.5 °F 28.4 °F 87% 30.06 in 10.0 mi NW 12.7 mph - N/A   Overcast
2:35 PM 32.0 °F 23.0 °F 26.6 °F 80% 30.07 in 10.0 mi NW 11.5 mph - N/A   Overcast
2:55 PM 32.0 °F 22.5 °F 26.6 °F 80% 30.08 in 10.0 mi NW 12.7 mph - N/A   Overcast
3:15 PM 32.0 °F 23.0 °F 26.6 °F 80% 30.09 in 10.0 mi NNW 11.5 mph - N/A   Overcast
3:35 PM 32.0 °F 23.0 °F 26.6 °F 80% 30.09 in 10.0 mi NNW 11.5 mph - N/A   Overcast
3:55 PM 32.0 °F 22.5 °F 26.6 °F 80% 30.10 in 10.0 mi NNW 12.7 mph - N/A   Overcast
4:15 PM 32.0 °F 24.8 °F 26.6 °F 80% 30.11 in 10.0 mi NNW 8.1 mph - N/A   Overcast
4:35 PM 32.0 °F 27.5 °F 26.6 °F 80% 30.12 in 10.0 mi NW 4.6 mph - N/A   Overcast
5:15 PM 32.0 °F - 26.6 °F 80% 30.14 in 10.0 mi Calm Calm - N/A   Overcast
5:35 PM 32.0 °F - 26.6 °F 80% 30.14 in 10.0 mi Calm Calm - N/A   Overcast
5:55 PM 32.0 °F - 26.6 °F 80% 30.14 in 10.0 mi Calm Calm - N/A   Overcast
6:15 PM 32.0 °F - 26.6 °F 80% 30.14 in 10.0 mi Calm Calm - N/A   Overcast
6:35 PM 32.0 °F - 26.6 °F 80% 30.15 in 10.0 mi Calm Calm - N/A   Overcast
6:55 PM 30.2 °F - 26.6 °F 86% 30.16 in 10.0 mi Calm Calm - N/A   Overcast
7:15 PM 30.2 °F - 26.6 °F 86% 30.16 in 10.0 mi Calm Calm - N/A   Overcast
7:35 PM 28.4 °F - 26.6 °F 93% 30.17 in 10.0 mi Calm Calm - N/A   Overcast
7:55 PM 30.2 °F - 26.6 °F 86% 30.17 in 10.0 mi Calm Calm - N/A   Overcast
8:15 PM 30.2 °F - 26.6 °F 86% 30.17 in 10.0 mi Calm Calm - N/A   Overcast
8:35 PM 30.2 °F - 26.6 °F 86% 30.18 in 10.0 mi Calm Calm - N/A   Overcast
8:55 PM 30.2 °F - 26.6 °F 86% 30.18 in 10.0 mi Calm Calm - N/A   Overcast
9:15 PM 28.4 °F - 24.8 °F 86% 30.18 in 10.0 mi Calm Calm - N/A   Overcast
9:35 PM 26.6 °F - 23.0 °F 86% 30.19 in 10.0 mi Calm Calm - N/A   Mostly Cloudy
9:55 PM 26.6 °F - 23.0 °F 86% 30.20 in 10.0 mi Calm Calm - N/A   Overcast
10:15 PM 28.4 °F 23.3 °F 23.0 °F 80% 30.20 in 10.0 mi NNW 4.6 mph - N/A   Overcast
10:35 PM 24.8 °F 16.9 °F 23.0 °F 93% 30.21 in 10.0 mi West 6.9 mph - N/A   Overcast
10:55 PM 28.4 °F 24.6 °F 24.8 °F 86% 30.22 in 10.0 mi WNW 3.5 mph - N/A Snow Light Snow
11:15 PM 28.4 °F - 24.8 °F 86% 30.23 in 10.0 mi Calm Calm - N/A Snow Light Snow
11:35 PM 28.4 °F 20.4 °F 24.8 °F 86% 30.23 in 10.0 mi NW 8.1 mph - N/A Snow Light Snow
11:55 PM 30.2 °F 19.8 °F 24.8 °F 80% 30.24 in 10.0 mi NNW 13.8 mph - N/A   Overcast